Chandigarh Airport
VICG : now visible

Airfield :











YOU CAN JOIN US ON...

 
LOGIN :

Register | Disclaimer

   EN    FR    IT 

 









Legend :    VFR   Marginal VFR   IFR   Intensive IFR   Very Intensive IFR
Visi :
Ceiling :
>= 8 km
>= 3000ft
5 to 8 km
1000 to 3000 ft
1500m to 5 km
500 to 1000 ft
800 to 1500m
200 to 500 ft
< 800m
< 200 ft
Symbols :   Thunderstorms  Fog  Heavy snow  Heavy precipitations  Wind > 20 kt






- Airport Elevation : 1012 ft
- IATA code : IXC


VICG - Chandigarh

METAR N/A
TAF TAF VICG
Valid from the 18 at 00:00 until the 19 at 06:00 UTC


172300Z 1800/1906 34010KT 6000 NSC
BECMG 1806/1808 32015G25KT 6000 FEW030
BECMG 1816/1818 02010KT 6000 NSC
TEMPO 1900/1903 5000 HZ
BECMG 1905/1906 32010G20KT 6000 SCT030



MET'MAP, your aeronautical weather chart ! - Copyright ORBIFLY December 2007 - Disclaimer

ORBIFLY MET'MAP TEAM :

Programming & Development : Alexandra Zaïnal
Original concept : Baudouin d'Aumeries
Technical & hardware support : Manuel Goepfert
Assistance : Marc-Olivier Méhu




SOURCES & CREDITS :

   NOAA       Earth
Advisory